This is the latest recevied weather packets stored in our database for station/object K5EAA-13. If no packets are shown the sender has not sent any weather packets the latest 10 day(s).
| Time | Temp. | Humidity | Pressure | Rain* | Wind** | Luminosity | Snow |
|---|---|---|---|---|---|---|---|
| 1787684875 | 38.33° C | 34% | 1014.3 hPa | 0 mm | - | 670 W/m² | - |
| 1787684575 | 37.78° C | 35% | 1014.3 hPa | 0 mm | - | 694 W/m² | - |
| 1787684269 | 37.78° C | 35% | 1014.2 hPa | 0 mm | - | 693 W/m² | - |
| 1787683965 | 36.67° C | 36% | 1014.3 hPa | 0 mm | - | 692 W/m² | - |
| 1787683664 | 36.67° C | 36% | 1014.4 hPa | 0 mm | - | 684 W/m² | - |
| 1787683359 | 36.67° C | 36% | 1014.2 hPa | 0 mm | - | 661 W/m² | - |
| 1787683056 | 36.67° C | 36% | 1014.4 hPa | 0 mm | - | 654 W/m² | - |
| 1787682752 | 36.11° C | 37% | 1014.6 hPa | 0 mm | - | 725 W/m² | - |
| 1787682447 | 36.67° C | 36% | 1014.8 hPa | 0 mm | - | 593 W/m² | - |
| 1787682144 | 36.67° C | 36% | 1014.8 hPa | 0 mm | - | 667 W/m² | - |
| 1787681839 | 36.11° C | 37% | 1014.9 hPa | 0 mm | - | 657 W/m² | - |
| 1787681538 | 36.11° C | 38% | 1014.9 hPa | 0 mm | - | 626 W/m² | - |
| 1787681233 | 35.56° C | 39% | 1015.1 hPa | 0 mm | - | 604 W/m² | - |
| 1787680929 | 35° C | 41% | 1015 hPa | 0 mm | - | 622 W/m² | - |
| 1787680628 | 35° C | 41% | 1015.1 hPa | 0 mm | - | 591 W/m² | - |
| 1787680328 | 35° C | 41% | 1015.1 hPa | 0 mm | - | 619 W/m² | - |
| 1787680027 | 34.44° C | 41% | 1015.2 hPa | 0 mm | - | 516 W/m² | - |
| 1787679727 | 34.44° C | 41% | 1015.5 hPa | 0 mm | - | 532 W/m² | - |
| 1787679427 | 34.44° C | 40% | 1015.6 hPa | 0 mm | - | 475 W/m² | - |
| 1787679122 | 34.44° C | 42% | 1015.6 hPa | 0 mm | - | 511 W/m² | - |
| 1787678823 | 33.89° C | 42% | 1015.9 hPa | 0 mm | - | 419 W/m² | - |
| 1787678518 | 33.89° C | 41% | 1016 hPa | 0 mm | - | 459 W/m² | - |
| 1787678217 | 34.44° C | 42% | 1015.9 hPa | 0 mm | - | 406 W/m² | - |
| 1787677913 | 33.89° C | 42% | 1015.9 hPa | 0 mm | - | 436 W/m² | - |
| 1787677613 | 33.89° C | 42% | 1016.1 hPa | 0 mm | - | 415 W/m² | - |
* Rain latest hour (hover to see other rain measurements)
** Current wind speed in m/s (hover to see current wind gust speed)